DMSP 5D-2 F13 DEB, 40418

Orbit data source: Space-Track

DMSP 5D-2 F13 DEB, 40418 is space debris in SSO originally from a launch on Fri, 24 Mar 1995 UTC launched from the Air Force Western Test Range (AFWTR). Debris objects in space refer to the collection of defunct objects orbiting the Earth. Examples of debris include non-operational satellites, rocket bodies, and fragments generated from explosions, collisions, or faulty payload assembly.

Loading next visibility...
Identifier
40418, 1995-015AF
Orbit
SSO
Country
Flag of USUS
Related business
Manufacturer
Unknown
Mission
Spacecraft
Bus & Motor
Unknown
Mass
Unknown
Launch date (UTC)
1995-03-24 (31 years ago)
Launch vehicle
Unknown
Launch site
Air Force Western Test Range (AFWTR)
Object type
Payload
Rocket body
Debris
Shape & HBR
Unknown shape, 0.1 m
Radar Cross Section
Small (<0.1 m²)

Expand to show TLE details & history
Last TLE update: 1 day ago

TLE from 1 day ago
0 DMSP 5D-2 F13 DEB
1 40418U 95015AF  26235.02387730  .00001683  00000-0  62308-3 0  9995
2 40418  98.6446 264.5299 0009202 131.1166 229.0814 14.33635580596818
Epoch: 2026-08-23T00:34Z
TLE epoch observation values (Epoch: 2026-08-23T00:34:22.998Z)
Latitude
-0.00004°
Longitude
-75.3918°
Altitude
786.858 km
Speed
7.458 km/s
True Right ascension
17h 38m 07s
True Declination
0° 00' 00"
Sunlit
Object was in daylight at epoch
Visualization orbit readout
Latitude
Unknown
Longitude
Unknown
Altitude
Unknown
Speed
Unknown
Apparent Right ascension
Unknown
Apparent Declination
Unknown
Sunlit
N/A
Visualization observer readout
Local Sidereal Time
19:31:25
Azimuth
Unknown
Elevation
Unknown
Doppler factor
Unknown
Orbital elements
Apogee altitude
783.325 km
Perigee altitude
770.158 km
Semi-major axis
7,154.879 km
Eccentricity
0.00092
Inclination
98.6446°
RAAN
264.5299°
Arg. of periapsis
131.1166°
True anomaly
229.00178°
Mean anomaly
229.0814°
Eccentric anomaly
229.04158°
Mean motion
3.58624 °/min
Orbital period
100.38 mins
BSTAR
0.00062308
Loading maneuver chart data...
Computing Atmospheric mass density...

Documentation

Showing up to 5 results
|